Weather WX

World > North America > United States > Ohio

Uniontown, Ohio Regional Weather

Lat: 40.97N, Lon: 81.4W
Wx Zone: OHZ021
Warning FLW WEATHER ALERT - FLASH FLOOD WATCH (More Info. Click Here) Warning
Feedback

Uniontown, OH Regional Weather

Expires:201906161200;;157539
ASUS41 KCLE 161112
RWRCLE
OHIO REGIONAL WEATHER ROUNDUP
NATIONAL WEATHER SERVICE WILMINGTON, OH
700 AM EDT SUN JUN 16 2019

NOTE: "FAIR" INDICATES FEW OR NO CLOUDS BELOW 12,000 FEET WITH NO
SIGNIFICANT WEATHER AND/OR OBSTRUCTIONS TO VISIBILITY.


OHZ009>014-019>023-028>033-038-089-161200-
   NORTHEAST OHIO
  
CITY           SKY/WX    TMP DP  RH WIND       PRES   REMARKS
CLE-HOPKINS    FOG       66  65  96 CALM      29.79R VSB 1/4          
CLE-LAKEFRONT  CLOUDY    64  62  93 NE6       29.77R FOG              
CUY CO. ARPT   CLOUDY    64  63  94 N6        29.78R FOG              
LORAIN-ELYRIA  FOG       64  60  87 W3        29.80R VSB 1/4          
ASHTABULA      CLOUDY    64  64 100 NE3       29.77F FOG              
AKRON-CANTON   PTSUNNY   66  63  90 W12       29.81R                  
WOOSTER        CLOUDY    63  63 100 SW6       29.82R                  
MANSFIELD      CLOUDY    64  64 100 SW7       29.82R                  
YOUNGSTOWN     CLOUDY    65  63  93 S5        29.76S FOG              
$$
 

SKY/WX - Weather  TMP - Temperature  DP - Dew Point  RH - Relative Humidity
WIND - Wind Direction/Speed PRES - Barometric Pressure VSB - Visibility
WCI - Wind Chill Index E13G22 Wind - East Wind 13 mph/Gusts of 22 mph